TimeCST,TemperatureF,Dew PointF,Humidity,Sea Level PressureIn,VisibilityMPH,Wind Direction,Wind SpeedMPH,Gust SpeedMPH,PrecipitationIn,Events,Conditions,WindDirDegrees,DateUTC
12:51 AM,57.9,55.0,90,30.07,10.0,Calm,Calm,-,N/A,,Clear,0,2012-11-04 05:51:00
1:51 AM,55.0,54.0,96,30.07,10.0,West,4.6,-,N/A,,Clear,270,2012-11-04 06:51:00
1:51 AM,55.9,54.0,93,30.07,10.0,SSW,3.5,-,N/A,,Clear,210,2012-11-04 07:51:00
2:51 AM,55.0,53.1,93,30.07,10.0,Calm,Calm,-,N/A,,Clear,0,2012-11-04 08:51:00
3:51 AM,57.0,55.0,93,30.06,10.0,Calm,Calm,-,N/A,,Clear,0,2012-11-04 09:51:00
4:51 AM,57.0,54.0,89,30.07,10.0,NE,4.6,-,N/A,,Partly Cloudy,50,2012-11-04 10:51:00
5:51 AM,57.0,53.1,87,30.09,10.0,NE,4.6,-,N/A,,Clear,40,2012-11-04 11:51:00
6:51 AM,55.4,51.8,88,30.13,10.0,NNW,4.6,-,N/A,,Clear,340,2012-11-04 12:51:00
7:51 AM,57.9,50.0,75,30.14,10.0,NNW,4.6,-,N/A,,Clear,330,2012-11-04 13:51:00
8:51 AM,61.0,46.9,60,30.14,10.0,North,6.9,-,N/A,,Clear,350,2012-11-04 14:51:00
9:51 AM,64.4,48.2,56,30.15,10.0,North,9.2,-,N/A,,Clear,350,2012-11-04 15:51:00
10:51 AM,69.1,48.0,47,30.12,10.0,NW,4.6,-,N/A,,Clear,310,2012-11-04 16:51:00
11:51 AM,73.9,51.1,45,30.10,10.0,Variable,5.8,-,N/A,,Clear,0,2012-11-04 17:51:00
12:51 PM,75.0,53.1,46,30.08,10.0,Variable,3.5,-,N/A,,Clear,0,2012-11-04 18:51:00
1:51 PM,77.0,53.1,43,30.06,10.0,NW,5.8,-,N/A,,Clear,320,2012-11-04 19:51:00
2:51 PM,79.0,53.1,40,30.05,10.0,Variable,6.9,-,N/A,,Clear,0,2012-11-04 20:51:00
3:51 PM,78.1,51.1,39,30.03,10.0,NW,8.1,-,N/A,,Clear,320,2012-11-04 21:51:00
4:51 PM,75.9,51.1,42,30.03,10.0,NW,4.6,-,N/A,,Clear,320,2012-11-04 22:51:00
5:51 PM,68.0,51.1,55,30.04,10.0,North,4.6,-,N/A,,Clear,350,2012-11-04 23:51:00
6:51 PM,64.9,48.9,56,30.05,10.0,North,4.6,-,N/A,,Clear,360,2012-11-05 00:51:00
7:51 PM,61.0,48.9,64,30.06,10.0,Calm,Calm,-,N/A,,Clear,0,2012-11-05 01:51:00
8:51 PM,57.0,50.0,77,30.06,10.0,South,4.6,-,N/A,,Clear,190,2012-11-05 02:51:00
9:51 PM,57.9,54.0,87,30.07,10.0,Calm,Calm,-,N/A,,Clear,0,2012-11-05 03:51:00
10:51 PM,55.0,52.0,89,30.07,10.0,Calm,Calm,-,N/A,,Clear,0,2012-11-05 04:51:00